Вернуться в каталог

FREGAT DEB

LostUNKNOWN
NORAD 46525·DEBRIS·🇷🇺 Russia

Запущен Jul 18, 2011 с Baikonur Cosmodrome

Loading…

Ближайшие Пролёты (ближайшие 24 часа)

TLE

УстаревшееSource: Space-Track

Эпоха: Oct 3, 2020, 06:05 UTC

1 46525U 11037MD  20277.25397574  .00008472  00000-0  82692+0 0  9991
2 46525  51.6934 211.9934 1244096 199.3180 155.6021  9.30244489  3532

Отслеживайте FREGAT DEB в реальном времени с AllMySat

Download on the App Store